Flag for U.S.A. Weather past 2 weeks in Ontario, Oregon, U.S.A.

Now
34 °F

Clear.


Feels Like: 31 °F
Forecast: 28 / 39 °F
Wind: 3 mph from Northwest

Location: Ontario Municipal Airport

Current Time: Feb 1, 2015 at 12:26:31 AM

Latest Report: Jan 31, 2015 at 11:53 PM


Visibility: 10 mi

Pressure: 30.27 "Hg

Humidity: 82%

Dew point: 29 °F

Location of OntarioLocation

Historic Weather in Ontario — Graph

°F

Ontario temperature yesterday

Maximum temperature yesterday: 52 °F (at 3:53 PM)
Minimum temperature yesterday: 22 °F (at 6:53 AM)
Average temperature yesterday: 35 °F

Past Weeks' High & Low Weather Summary

 TemperatureHumidityPressure
High52 °F (Jan 31, 3:53 PM)100% (Jan 27, 10:53 AM)30.72 "Hg (Jan 27, 10:53 AM)
Low22 °F (Jan 31, 6:53 AM)49% (Jan 31, 4:53 PM)30.14 "Hg (Jan 18, 7:59 AM)
Average34 °F86%30.43 "Hg
* Reported Jan 16 10:53 PM — Jan 31 10:53 PM, Ontario, Weather by CustomWeather, © 2014

Note: Actual official high and low records may vary slightly from our data, if they occured in-between our weather recording intervals... More about our weather records

Advertising

Ontario weather history for previous 24 hours

 ConditionsComfort  
Time TempWeatherWind HumidityBarometerVisibility
10:53 PM
Jan 31
33 °FClear.No wind82%30.28 "Hg10 mi
9:53 PM34 °FClear.3 mph82%30.27 "Hg10 mi
8:53 PM35 °FClear.3 mph82%30.27 "Hg10 mi
7:53 PM38 °FClear.3 mph73%30.26 "Hg10 mi
6:53 PM41 °FSunny.5 mph67%30.25 "Hg10 mi
5:53 PM43 °FSunny.3 mph65%30.23 "Hg10 mi
4:53 PM52 °FSunny.No wind49%30.21 "Hg10 mi
3:53 PM52 °FSunny.3 mph50%30.21 "Hg10 mi
2:53 PM50 °FSunny.5 mph52%30.23 "Hg10 mi
1:53 PM48 °FSunny.3 mph54%30.24 "Hg10 mi
12:53 PM45 °FSunny.No wind58%30.26 "Hg10 mi
11:53 AM41 °FSunny.5 mph67%30.27 "Hg10 mi
10:53 AM34 °FSunny.No wind88%30.29 "Hg10 mi
9:53 AM30 °FSunny.No wind89%30.31 "Hg10 mi
8:53 AM24 °FIce fog.3 mph91%30.29 "Hg5 mi
8:01 AM22 °FIce fog.3 mph92%30.20 "Hg3 mi
6:53 AM22 °FIce fog.No wind89%30.25 "Hg1 mi
5:53 AM24 °FIce fog.No wind96%30.24 "Hg0 mi
4:53 AM26 °FIce fog.No wind88%30.23 "Hg5 mi
3:53 AM27 °FIce fog.No wind89%30.21 "Hg4 mi
2:53 AM25 °FIce fog.No wind92%30.22 "Hg6 mi
1:53 AM28 °FClear.No wind89%30.22 "Hg9 mi
12:53 AM28 °FClear.No wind93%30.24 "Hg9 mi
Weather by CustomWeather, © 2014

See weather overviewHow to use our weather pages